SCP
0 1 1 1 2 1 1 1 0 0 0 0 0 0 0 0 0 0 0 0 0 0 0 0 0 0 0 0 0 1 0 0 0 0 0 0 0 0 0 0 0 0 0
0 1 1 2 2 1 1 1 0 0 0 0 0 0 0 0 0 0 0 0 0 0 0 0 0 0 0 0 0 0 0 0 0 0 0 0 0 0 0 0 0 0 0
1 1 1 2 2 2 1 1 0 0 0 0 0 0 0 0 0 0 0 0 0 0 0 0 0 0 0 0 0 0 0 0 0 0 0 0 0 0 0 0 0 0 0
1 1 2 2 2 2 1 1 0 0 0 0 0 0 0 0 0 0 0 0 0 0 0 0 0 0 0 0 0 0 0 0 0 0 0 0 0 0 0 0 0 0 0
0 1 1 2 2 1 1 0 0 0 0 0 0 0 0 0 0 0 0 0 0 0 0 0 0 0 0 0 0 0 0 0 0 0 0 0 0 0 0 0 0 0 0
0 1 1 2 1 1 0 0 0 0 0 0 0 0 0 0 0 0 0 0 0 0 0 0 0 0 0 0 0 0 0 0 0 0 0 0 0 0 0 0 0 0 0
0 1 1 1 1 1 0 0 0 0 0 0 0 0 0 0 0 0 0 0 0 0 0 0 0 0 0 0 0 0 0 0 0 0 0 0 0 0 0 0 0 0 0
1 1 1 1 1 0 0 0 0 0 0 0 0 0 0 0 0 0 0 0 0 0 0 0 0 0 0 0 0 0 0 0 0 0 0 0 0 0 0 0 0 0 0
1 1 1 1 0 0 0 0 0 0 0 0 0 0 0 0 0 0 0 0 0 0 0 0 0 0 0 0 0 0 0 0 0 0 0 0 0 0 0 0 0 0 0
1 1 0 0 0 0 0 0 0 0 0 0 0 0 0 0 0 0 0 0 0 0 0 0 0 0 0 0 0 0 0 0 0 0 0 0 0 0 0 0 0 0 0
1 1 0 0 0 0 0 0 0 0 0 0 0 0 0 0 0 0 0 0 0 0 0 0 0 0 0 0 0 0 0 0 0 0 0 0 0 0 0 0 0 0 0
1 1 0 0 0 0 0 0 0 0 0 0 0 0 0 0 0 0 0 0 0 0 0 0 0 0 0 0 0 0 0 0 0 0 0 0 0 0 0 0 0 0 0
1 1 1 0 0 0 0 0 0 0 0 0 0 0 0 0 0 0 0 0 0 0 0 0 0 0 0 0 0 0 0 0 0 0 0 0 0 0 0 0 0 0 0
1 1 1 1 0 0 0 0 0 0 0 0 0 0 0 0 0 0 0 0 0 0 0 0 0 0 0 0 0 0 0 0 0 0 0 0 0 0 0 0 0 0 0
1 1 1 1 0 0 0 0 0 0 0 0 0 0 0 0 0 0 0 0 0 0 0 0 0 0 0 0 0 0 0 0 0 0 0 0 0 0 0 0 0 0 0
0 1 1 1 0 0 0 0 0 0 0 0 0 0 0 0 0 0 0 0 0 0 0 0 0 0 0 0 0 0 0 0 0 0 0 0 0 0 0 0 0 0 0
0 0 1 1 0 0 0 0 0 0 0 0 0 0 0 0 0 0 0 0 0 0 0 0 0 0 0 0 0 0 0 0 0 0 0 0 0 0 0 0 0 0 0
0 0 1 1 0 0 0 0 0 0 0 0 0 0 0 0 0 0 0 0 0 0 0 0 0 0 0 0 0 0 0 0 0 0 0 0 0 0 0 0 0 0 0
0 0 0 1 0 0 0 0 0 0 0 0 0 0 0 0 0 0 0 0 0 0 0 0 0 0 0 0 0 0 0 0 0 0 0 0 0 0 0 0 0 0 0
0 0 0 1 0 0 0 0 0 0 0 0 0 0 0 0 0 0 0 0 0 0 0 0 0 0 0 0 0 0 0 0 0 0 0 0 0 0 0 0 0 0 0
0 0 0 1 0 0 0 0 0 0 0 0 0 0 0 0 0 0 0 0 0 0 0 0 0 0 0 0 0 0 0 0 0 0 0 0 0 0 0 0 0 0 0
0 0 0 1 0 0 0 0 0 0 0 0 0 0 0 0 0 0 0 0 0 0 0 0 0 0 0 0 0 0 0 0 0 0 0 0 0 0 0 0 0 0 0
0 0 0 0 0 0 0 0 0 0 0 0 0 0 0 0 0 0 0 0 0 0 0 0 0 0 0 0 0 0 0 0 0 0 0 0 0 0 0 0 0 0 0
0 0 0 0 0 0 0 0 0 0 0 0 0 0 0 0 0 0 0 0 0 0 0 0 0 0 0 0 0 0 0 0 0 0 0 0 0 0 0 0 0 0 0
0 0 0 0 0 0 0 0 0 0 0 0 0 0 0 0 0 0 0 0 0 0 0 0 0 0 0 0 0 0 0 0 0 0 0 0 0 0 0 0 0 0 0
0 0 0 0 0 0 0 0 0 0 0 0 0 0 0 0 0 0 0 0 0 0 0 0 0 0 0 0 0 0 0 0 0 0 0 0 0 0 0 0 0 0 0
Wind_Speed
12 15 21 19 17 17 16 16 16 16 15 15 15 15 15 15 15 15 15 15 15 15 15 16 16 16 17 17 17 16 16 16 16 17 17 17 17 17 17 17 15 10 17
16 18 21 19 18 17 17 16 16 16 15 15 14 14 14 14 15 14 14 14 14 15 15 15 15 16 16 16 15 15 15 14 13 14 15 15 16 16 16 16 15 11 16
19 18 19 20 19 18 17 16 16 15 15 14 14 14 14 14 14 14 14 14 14 14 15 15 15 15 15 15 14 14 13 11 10 12 13 7 9 15 15 15 15 15 15
18 17 16 20 20 19 18 17 16 16 15 14 14 14 14 14 14 14 14 14 14 14 14 14 14 14 14 14 13 13 11 10 10 12 8 7 7 13 14 14 14 14 14
17 15 17 21 20 19 18 17 16 16 15 15 14 14 14 14 14 14 14 14 13 14 14 13 14 14 13 13 12 11 9 9 10 10 6 7 6 11 13 13 13 13 13
16 15 17 20 20 19 18 17 16 16 15 15 14 14 13 13 14 14 13 13 13 13 13 13 12 12 12 11 11 9 9 9 7 6 7 6 5 10 12 12 12 12 12
16 15 17 19 20 19 18 17 17 16 15 15 14 14 14 13 13 13 13 12 12 12 12 11 11 11 11 10 9 8 8 9 4 5 6 6 6 11 12 12 12 12 12
15 16 15 19 19 19 18 18 17 16 15 15 14 14 14 13 13 12 12 11 11 11 11 10 10 10 9 9 8 6 7 8 5 6 6 5 8 10 11 11 11 12 12
15 16 13 13 14 17 17 17 17 16 15 14 14 14 13 13 12 12 11 11 10 10 9 9 9 8 8 7 6 4 6 9 4 3 7 4 8 9 10 11 11 11 12
13 14 13 12 12 11 11 14 15 14 14 14 14 13 13 12 11 11 10 10 9 9 8 8 7 7 6 5 3 3 6 7 2 5 4 5 9 9 10 10 10 11 11
13 13 13 13 12 11 10 13 12 12 13 13 11 13 11 6 6 7 8 9 9 8 7 7 6 5 4 3 2 3 5 1 3 4 4 7 8 8 9 10 10 10 10
14 14 13 13 12 12 11 10 7 7 8 7 7 8 5 5 5 7 10 9 8 7 7 5 5 4 3 2 3 3 2 1 2 4 4 8 7 7 8 9 9 9 10
14 13 13 13 12 11 8 8 6 5 6 6 8 8 5 5 5 5 4 4 4 5 3 4 3 3 2 2 1 1 1 2 2 3 4 7 6 6 7 8 8 8 9
13 13 12 12 12 11 9 8 7 6 5 5 7 8 5 4 4 5 4 4 4 3 3 3 2 3 2 2 1 1 1 1 2 3 3 6 5 6 6 7 7 8 8
13 13 13 13 12 10 9 7 7 6 6 6 6 6 6 4 4 5 4 4 4 3 3 3 2 2 1 1 1 1 1 1 2 3 3 5 5 4 5 5 6 6 7
15 14 13 13 13 11 8 7 7 6 6 6 6 6 7 5 4 5 4 4 4 3 3 3 2 2 1 1 1 1 1 1 2 3 3 4 4 3 3 4 5 5 6
16 15 13 13 13 12 10 8 6 6 6 6 6 7 7 6 6 5 4 4 3 3 3 2 2 1 1 1 1 0 1 1 1 1 2 3 3 3 2 2 3 4 5
15 16 15 12 13 13 10 9 6 6 7 6 6 6 7 7 7 5 4 4 4 3 3 2 2 1 1 1 1 0 1 0 0 1 1 2 2 2 2 2 1 3 4
15 16 16 14 14 13 11 8 7 6 6 6 6 6 7 8 8 6 4 4 5 3 3 3 2 2 2 1 1 1 1 1 1 1 1 2 2 2 2 3 2 1 3
14 15 16 14 13 12 10 7 6 6 6 5 6 6 8 7 8 6 5 5 5 4 3 3 3 2 2 2 1 0 1 2 2 2 2 1 2 2 2 2 2 2 3
14 15 16 16 14 12 10 10 9 8 7 6 6 8 9 8 9 7 5 6 5 4 5 5 3 3 2 2 1 1 2 3 3 3 2 2 2 3 3 2 2 2 2
15 16 16 17 16 14 11 10 8 7 6 6 5 7 8 9 9 8 7 6 6 5 6 5 4 3 2 3 3 1 1 2 2 3 2 3 3 3 3 3 3 2 2
15 16 15 17 16 15 12 9 7 6 5 6 8 7 8 9 9 9 9 7 7 6 5 6 5 5 4 3 3 3 2 3 2 2 3 3 3 3 3 3 4 3 3
15 15 15 16 16 16 15 13 13 11 10 10 8 7 8 9 9 10 9 8 8 6 6 6 6 5 5 3 2 2 3 3 2 1 2 3 3 4 4 3 3 4 4
14 14 14 15 15 15 15 15 14 11 9 7 7 9 10 9 10 10 10 9 8 7 7 7 6 6 5 5 4 3 2 2 2 2 3 3 2 3 3 4 3 3 3
12 12 13 14 14 15 16 16 15 14 12 11 11 11 10 7 8 11 10 9 9 7 8 7 7 8 6 5 4 4 4 3 3 3 4 3 3 4 3 3 3 3 3
Wind_Direction
137 147 151 147 143 138 134 129 124 118 113 110 107 105 102 99 97 94 92 90 88 86 84 82 81 79 77 75 74 73 72 71 71 71 67 62 60 58 55 52 53 46 48
138 146 151 147 144 140 137 132 127 122 117 114 111 109 105 102 100 97 95 92 91 88 86 84 82 80 78 76 75 74 73 73 72 73 72 65 60 58 56 53 52 49 48
137 143 150 148 145 142 138 134 129 126 121 117 113 111 109 105 102 99 96 93 91 90 87 86 83 81 79 78 76 73 71 67 60 61 68 66 57 57 55 52 51 49 47
138 144 148 148 146 143 140 136 133 129 126 122 117 114 111 108 105 101 99 96 93 91 89 87 85 83 81 78 76 73 68 56 42 57 60 56 48 53 51 48 47 46 43
138 144 145 149 146 144 141 138 135 133 130 126 122 118 114 111 106 102 100 98 96 95 92 90 87 85 82 78 75 71 60 41 34 60 62 58 43 49 49 46 42 40 38
138 139 145 150 148 146 144 141 139 136 132 130 127 123 119 115 110 105 102 101 99 98 95 91 88 86 82 78 73 63 44 25 38 57 59 53 38 42 45 43 41 38 37
139 139 147 152 150 147 145 143 141 138 135 133 131 128 123 118 112 109 107 106 104 102 98 95 92 88 83 78 71 54 26 4 61 71 67 54 36 40 40 38 36 36 37
139 139 148 152 150 149 148 146 144 141 139 137 133 130 126 121 119 117 114 112 109 105 101 99 95 90 84 77 67 42 12 4 31 69 72 54 38 38 37 35 34 35 36
139 140 147 151 150 151 150 149 147 146 144 141 138 133 129 127 127 124 121 117 113 109 104 101 96 93 87 80 67 26 352 344 359 58 69 52 37 37 38 36 35 36 36
141 145 150 152 153 152 150 150 148 148 147 144 139 133 131 133 132 130 127 123 120 116 112 109 105 101 98 95 79 344 325 323 23 69 63 45 39 36 36 36 36 37 38
149 151 156 157 157 155 154 153 149 148 148 143 137 137 135 138 135 136 131 132 131 126 123 121 123 126 131 150 194 280 307 305 78 80 66 48 41 34 35 38 38 38 39
161 161 162 161 160 158 158 152 154 154 152 152 149 151 157 157 150 139 136 141 142 141 141 148 167 179 182 186 223 251 291 335 78 91 77 58 45 38 38 41 39 38 38
164 164 165 162 160 159 154 156 159 156 161 166 160 165 168 152 132 125 138 140 146 157 168 175 193 220 198 152 184 195 14 19 61 85 83 68 49 41 38 39 39 38 35
167 168 165 162 161 160 157 159 159 158 166 166 164 168 165 148 148 149 153 160 166 176 175 180 206 204 172 152 161 99 77 47 78 96 99 82 59 44 37 38 37 36 33
171 170 169 166 163 162 158 162 162 162 165 164 162 171 160 150 156 154 161 162 171 170 165 191 206 172 159 132 96 72 84 87 93 103 111 101 83 59 41 35 29 28 27
175 173 172 169 165 162 162 164 162 164 162 159 158 170 162 157 159 156 160 161 167 162 169 186 185 154 161 127 101 45 43 76 96 118 130 123 112 90 52 35 25 22 18
175 173 174 172 167 166 166 169 165 163 160 158 160 171 166 160 159 159 157 160 164 163 169 171 168 132 129 125 146 114 54 29 89 122 135 140 136 127 106 46 20 11 7
171 172 175 175 172 171 170 172 166 164 161 160 161 169 173 167 162 161 159 165 165 160 158 158 151 138 140 158 158 138 123 68 82 138 127 139 145 144 146 137 14 354 351
173 172 173 174 176 174 171 169 166 163 163 162 163 168 176 172 166 163 165 168 164 159 161 164 156 156 163 167 155 171 189 190 199 174 165 152 144 143 154 170 189 277 322
174 172 172 173 177 172 169 168 166 169 171 169 169 173 174 173 169 166 166 172 165 159 165 165 167 170 165 164 156 217 231 206 201 193 196 168 168 173 174 183 188 222 247
174 174 174 175 178 174 175 176 178 181 178 176 176 177 176 175 173 171 171 175 169 170 175 173 166 172 181 151 115 292 277 233 207 201 191 187 192 188 191 198 201 199 230
178 178 177 178 179 179 181 179 179 175 176 176 175 183 182 181 178 179 176 177 175 174 179 182 170 165 182 165 153 157 292 310 276 217 195 201 204 197 208 209 210 210 214
182 180 181 180 180 180 174 167 166 165 168 179 186 190 189 187 183 180 182 179 180 177 183 187 178 171 178 193 178 164 176 228 269 266 225 211 209 209 219 217 213 215 216
183 179 179 179 179 179 174 176 177 181 187 190 185 185 186 190 187 184 183 184 184 182 182 187 184 178 169 187 203 204 195 180 163 274 283 243 223 221 224 223 218 219 215
177 176 178 178 179 178 178 181 183 189 189 179 177 183 189 192 193 191 188 189 187 185 185 187 185 186 181 181 183 185 215 236 206 186 253 268 265 244 228 224 220 219 214
173 172 175 177 180 179 181 184 187 189 185 181 184 186 189 190 193 195 190 190 189 187 188 190 190 188 189 189 189 181 176 182 203 199 225 244 251 253 237 228 221 221 216